Mount Holly, NJ

11:25 PM EDT on September 18, 2019 (GMT -0400)
South Jersey Regional

Weather History for KVAY - August, 2019

Change the Weather History Date:

Monday, August 19, 2019

  Actual Average (KPNE) Record (KPNE)
Temperature  
Mean Temperature 80 °F -  
Max Temperature 93 °F 83 °F 96 °F (2019)
Min Temperature 72 °F 65 °F 57 °F (1997)
Cooling Degree Days 16    
Growing Degree Days 30 (Base 50)    
Moisture  
Dew Point 73 °F    
Average Humidity 91    
Maximum Humidity 100    
Minimum Humidity 61    
Precipitation  
Precipitation 0.00 in - - ()
Sea Level Pressure  
Sea Level Pressure 29.98 in    
Wind  
Wind Speed 1 mph (SSW)    
Max Wind Speed 6 mph    
Max Gust Speed -    
Visibility 9 miles    
Events Rain , Thunderstorm    
Averages and records for this station are not official NWS values.
T = Trace of Precipitation, MM = Missing Value Source: NWS Daily Summary

Daily Weather History Graph

Daily Weather History Graph

Search for Another Location

Airport or City:

Astronomy

Aug. 19, 2019 Rise Set
Actual Time 6:14 AM EDT 7:50 PM EDT
Civil Twilight 5:46 AM EDT 8:19 PM EDT
Nautical Twilight 5:11 AM EDT 8:53 PM EDT
Astronomical Twilight 4:34 AM EDT 9:30 PM EDT
Moon 10:11 PM EDT 9:53 AM EDT
Length of Visible Light 14h 33m
Length of Day
13h 36m
Waning Gibbous, 85% of the Moon is Illuminated
Aug 19
Waning Gibbous
Aug 23
Last Quarter
Aug 30
New
Sep 5
First Quarter
Sep 14
Full

Hourly Weather History & Observations

Time (EDT) Temp. Heat Index Dew Point Humidity Pressure Visibility Wind Dir Wind Speed Gust Speed Precip Events Conditions
12:54 AM 72.0 °F - 71.1 °F 97% 29.96 in 7.0 mi Calm Calm - N/A   Clear
1:54 AM 73.0 °F - 72.0 °F 96% 29.95 in 7.0 mi Calm Calm - N/A   Clear
2:54 AM 73.9 °F - 72.0 °F 93% 29.94 in 8.0 mi Calm Calm - N/A   Unknown
3:14 AM 73.9 °F - 73.0 °F 97% 29.95 in 10.0 mi Variable 3.5 mph - N/A   Partly Cloudy
3:29 AM 73.9 °F - 73.0 °F 97% 29.96 in 10.0 mi SW 3.5 mph - N/A   Mostly Cloudy
3:50 AM 73.4 °F - 73.4 °F 100% 29.97 in 9.0 mi Calm Calm - N/A   Scattered Clouds
3:54 AM 73.9 °F - 73.0 °F 97% 29.97 in 9.0 mi Calm Calm - N/A   Partly Cloudy
4:33 AM 73.9 °F - 73.0 °F 97% 29.97 in 10.0 mi Calm Calm - N/A   Mostly Cloudy
4:54 AM 75.0 °F - 73.0 °F 94% 29.98 in 10.0 mi Calm Calm - N/A   Overcast
5:29 AM 73.9 °F - 73.0 °F 97% 29.98 in 9.0 mi Calm Calm - N/A   Mostly Cloudy
5:54 AM 73.9 °F - 73.0 °F 97% 29.99 in 7.0 mi Calm Calm - N/A   Scattered Clouds
6:54 AM 73.9 °F - 72.0 °F 93% 30.00 in 6.0 mi Calm Calm - N/A   Partly Cloudy
7:07 AM 73.9 °F - 73.0 °F 97% 30.00 in 7.0 mi Calm Calm - N/A   Mostly Cloudy
7:54 AM 77.0 °F - 75.0 °F 94% 29.99 in 10.0 mi Calm Calm - N/A   Overcast
8:33 AM 79.0 °F - 75.0 °F 88% 30.00 in 10.0 mi Calm Calm - N/A   Mostly Cloudy
8:51 AM 80.6 °F 86.2 °F 75.2 °F 84% 29.99 in 10.0 mi SSW 3.5 mph - N/A   Partly Cloudy
8:54 AM 80.1 °F 85.4 °F 75.9 °F 87% 29.99 in 10.0 mi Variable 3.5 mph - N/A   Partly Cloudy
3:54 PM 89.1 °F 98.0 °F 73.9 °F 61% 29.93 in 6.0 mi NW 5.8 mph - 0.00 in Rain Rain
5:18 PM 82.0 °F 87.4 °F 73.0 °F 74% 29.92 in 10.0 mi Variable 4.6 mph - 0.00 in Thunderstorm Clear
5:35 PM 82.0 °F 87.9 °F 73.9 °F 76% 29.96 in 10.0 mi SSE 3.5 mph - 0.00 in   Mostly Cloudy
5:54 PM 79.0 °F - 73.0 °F 82% 29.97 in 10.0 mi Variable 5.8 mph - 0.00 in   Overcast
6:54 PM 78.1 °F - 73.0 °F 84% 29.97 in 10.0 mi Calm Calm - N/A   Scattered Clouds
7:54 PM 75.9 °F - 73.0 °F 91% 29.99 in 10.0 mi Calm Calm - N/A   Clear
8:54 PM 75.0 °F - 73.0 °F 94% 29.99 in 10.0 mi Calm Calm - N/A   Clear
9:54 PM 73.9 °F - 72.0 °F 93% 30.01 in 9.0 mi SE 3.5 mph - N/A   Clear
10:54 PM 73.0 °F - 71.1 °F 93% 30.02 in 7.0 mi Calm Calm - N/A   Clear
11:54 PM 73.0 °F - 71.1 °F 93% 30.02 in 8.0 mi Calm Calm - N/A   Partly Cloudy